Location: *
(46.1006°N, 1.8394°E)
Time: 10:51:39
(UTC+00:00)

Cosmos 1674 - Pass Details

Date: 20 September 2019
Orbit: 494 x 520 km, 82.5° (Epoch: 14 October)

Event Time Altitude Azimuth Distance (km) Brightness Sun altitude
Rises 19:17:12 0° 1° (N) 2,596 6.5 -14.8°
Reaches altitude 10° 19:19:34 10° 14° (NNE) 1,705 5.4 -15.2°
Enters shadow 19:22:46 27° 73° (ENE) 989 3.7 -15.8°
